• In Uzbekistan
  • List of Countries
  • For 7 days
  • Water Temperature
  • Satellite Maps
  • Weather Map
  • Weather Widgets
  • user-avatar
    Login

    Hourly Weather Ondjiwa

    Today, 19 January, Friday

    Time Temperature Precipitation Wind Pressure Humidity
    00:00 +27°C° 0 mm 1 mps 666 mmHg 49%
    01:00 +27°C° 0 mm 1 mps 666 mmHg 50%
    02:00 +26°C° 0 mm 1 mps 666 mmHg 52%
    03:00 +26°C° 0 mm 1 mps 665 mmHg 54%
    04:00 +26°C° 0 mm 1 mps 665 mmHg 55%
    05:00 +26°C° 0 mm 1 mps 666 mmHg 56%
    06:00 +26°C° 0 mm 1 mps 666 mmHg 56%
    07:00 +27°C° 0 mm 1 mps 666 mmHg 53%
    08:00 +29°C° 0 mm 2 mps 667 mmHg 48%
    09:00 +30°C° 0 mm 2 mps 667 mmHg 43%
    10:00 +32°C° 0 mm 2 mps 667 mmHg 39%
    11:00 +32°C° 0 mm 2 mps 667 mmHg 37%
    12:00 +33°C° 0 mm 3 mps 666 mmHg 36%
    13:00 +33°C° 0 mm 3 mps 666 mmHg 34%
    14:00 +34°C° 0 mm 3 mps 665 mmHg 33%
    15:00 +34°C° 0 mm 2 mps 665 mmHg 32%
    16:00 +34°C° 0 mm 2 mps 665 mmHg 31%
    17:00 +32°C° 0 mm 1 mps 665 mmHg 33%
    18:00 +31°C° 0 mm 1 mps 664 mmHg 35%
    19:00 +28°C° 0 mm 0 mps 664 mmHg 37%
    20:00 +30°C° 0 mm 1 mps 665 mmHg 38%
    21:00 +29°C° 0 mm 1 mps 665 mmHg 40%
    22:00 +28°C° 0 mm 1 mps 665 mmHg 41%
    23:00 +28°C° 0.3 mm 1 mps 665 mmHg 43%

    Tomorrow, 20 January, Saturday

    Time Temperature Precipitation Wind Pressure Humidity
    00:00 +27°C° 0.3 mm 1 mps 665 mmHg 45%
    01:00 +27°C° 0.3 mm 1 mps 665 mmHg 47%
    02:00 +26°C° 0 mm 1 mps 665 mmHg 49%
    03:00 +26°C° 0 mm 1 mps 665 mmHg 51%
    04:00 +26°C° 0 mm 1 mps 665 mmHg 53%
    05:00 +26°C° 0 mm 1 mps 665 mmHg 53%
    06:00 +27°C° 0 mm 1 mps 665 mmHg 53%
    07:00 +27°C° 0 mm 1 mps 666 mmHg 54%
    08:00 +29°C° 0 mm 1 mps 666 mmHg 47%
    09:00 +31°C° 0 mm 2 mps 666 mmHg 41%
    10:00 +34°C° 0 mm 2 mps 667 mmHg 34%
    11:00 +35°C° 0 mm 2 mps 666 mmHg 32%
    12:00 +35°C° 0 mm 2 mps 666 mmHg 29%
    13:00 +35°C° 0 mm 3 mps 665 mmHg 27%
    14:00 +35°C° 0 mm 2 mps 665 mmHg 27%
    15:00 +35°C° 0 mm 2 mps 664 mmHg 28%
    16:00 +33°C° 0 mm 1 mps 664 mmHg 29%
    17:00 +33°C° 0 mm 1 mps 664 mmHg 31%
    18:00 +32°C° 0 mm 2 mps 664 mmHg 32%
    19:00 +31°C° 0 mm 2 mps 664 mmHg 34%
    20:00 +30°C° 0 mm 2 mps 665 mmHg 36%
    21:00 +29°C° 0 mm 2 mps 665 mmHg 39%
    22:00 +29°C° 0 mm 2 mps 666 mmHg 41%
    23:00 +28°C° 0.5 mm 3 mps 665 mmHg 49%

    Day after tomorrow, 21 January, Sunday

    Time Temperature Precipitation Wind Pressure Humidity
    00:00 +26°C° 0.5 mm 3 mps 665 mmHg 57%
    01:00 +25°C° 0.5 mm 4 mps 664 mmHg 65%
    02:00 +23°C° 0.2 mm 4 mps 664 mmHg 69%
    03:00 +22°C° 0.2 mm 3 mps 664 mmHg 72%
    04:00 +22°C° 0.2 mm 3 mps 664 mmHg 76%
    05:00 +22°C° 0.1 mm 3 mps 665 mmHg 75%
    06:00 +22°C° 0.1 mm 3 mps 665 mmHg 74%
    07:00 +22°C° 0.1 mm 3 mps 666 mmHg 73%
    08:00 +25°C° 0 mm 2 mps 666 mmHg 64%
    09:00 +28°C° 0 mm 2 mps 667 mmHg 54%
    10:00 +30°C° 0 mm 2 mps 668 mmHg 45%
    11:00 +31°C° 0.1 mm 2 mps 667 mmHg 42%
    12:00 +31°C° 0.1 mm 2 mps 667 mmHg 40%
    13:00 +32°C° 0.1 mm 2 mps 666 mmHg 37%
    14:00 +31°C° 0.9 mm 2 mps 665 mmHg 43%
    15:00 +29°C° 0.9 mm 3 mps 664 mmHg 49%
    16:00 +28°C° 0.9 mm 3 mps 663 mmHg 55%
    17:00 +27°C° 1.5 mm 4 mps 663 mmHg 60%
    18:00 +26°C° 1.5 mm 4 mps 663 mmHg 65%
    19:00 +25°C° 1.5 mm 4 mps 664 mmHg 69%
    20:00 +25°C° 1.4 mm 4 mps 665 mmHg 72%
    21:00 +23°C° 1.4 mm 4 mps 665 mmHg 74%
    22:00 +24°C° 1.4 mm 3 mps 666 mmHg 77%
    23:00 +22°C° 2.1 mm 3 mps 666 mmHg 77%

    22 January, Monday

    Time Temperature Precipitation Wind Pressure Humidity
    00:00 +22°C° 2.1 mm 4 mps 666 mmHg 78%
    01:00 +21°C° 2.1 mm 4 mps 666 mmHg 79%
    02:00 +21°C° 0.1 mm 4 mps 665 mmHg 78%
    03:00 +21°C° 0.1 mm 3 mps 665 mmHg 77%
    04:00 +21°C° 0.1 mm 3 mps 665 mmHg 76%
    05:00 +22°C° 0 mm 3 mps 666 mmHg 72%
    06:00 +22°C° 0 mm 3 mps 666 mmHg 69%
    07:00 +22°C° 0 mm 3 mps 667 mmHg 65%
    08:00 +25°C° 0 mm 3 mps 667 mmHg 56%
    09:00 +27°C° 0 mm 3 mps 668 mmHg 47%
    10:00 +29°C° 0 mm 3 mps 668 mmHg 38%
    11:00 +30°C° 0 mm 2 mps 668 mmHg 36%
    12:00 +31°C° 0 mm 2 mps 667 mmHg 33%
    13:00 +34°C° 0 mm 2 mps 667 mmHg 31%
    14:00 +32°C° 0 mm 2 mps 666 mmHg 31%
    15:00 +32°C° 0 mm 2 mps 665 mmHg 31%
    16:00 +32°C° 0 mm 2 mps 665 mmHg 32%
    17:00 +30°C° 0 mm 2 mps 665 mmHg 35%
    18:00 +29°C° 0 mm 2 mps 665 mmHg 39%
    19:00 +28°C° 0 mm 1 mps 665 mmHg 42%
    20:00 +27°C° 0 mm 1 mps 665 mmHg 44%
    21:00 +27°C° 0 mm 1 mps 666 mmHg 46%
    22:00 +26°C° 0 mm 1 mps 666 mmHg 47%
    23:00 +25°C° 0 mm 2 mps 666 mmHg 51%

    23 January, Tuesday

    Time Temperature Precipitation Wind Pressure Humidity
    00:00 +25°C° 0 mm 2 mps 666 mmHg 55%
    01:00 +24°C° 0 mm 3 mps 665 mmHg 58%
    02:00 +24°C° 0 mm 3 mps 665 mmHg 57%
    03:00 +22°C° 0 mm 3 mps 665 mmHg 56%
    04:00 +22°C° 0 mm 3 mps 665 mmHg 55%
    05:00 +22°C° 0 mm 3 mps 665 mmHg 53%
    06:00 +22°C° 0 mm 3 mps 666 mmHg 51%
    07:00 +22°C° 0 mm 3 mps 666 mmHg 49%
    08:00 +26°C° 0 mm 3 mps 667 mmHg 42%
    09:00 +28°C° 0 mm 3 mps 667 mmHg 35%
    10:00 +30°C° 0 mm 3 mps 667 mmHg 27%
    11:00 +31°C° 0 mm 2 mps 666 mmHg 26%
    12:00 +34°C° 0 mm 2 mps 666 mmHg 25%
    13:00 +35°C° 0 mm 1 mps 665 mmHg 24%
    14:00 +35°C° 0 mm 1 mps 665 mmHg 24%
    15:00 +34°C° 0 mm 1 mps 664 mmHg 24%
    16:00 +34°C° 0 mm 1 mps 664 mmHg 24%
    17:00 +33°C° 0 mm 1 mps 664 mmHg 26%
    18:00 +32°C° 0 mm 1 mps 664 mmHg 28%
    19:00 +31°C° 0 mm 1 mps 664 mmHg 30%
    20:00 +30°C° 0 mm 1 mps 664 mmHg 32%
    21:00 +30°C° 0 mm 2 mps 665 mmHg 34%
    22:00 +29°C° 0 mm 2 mps 665 mmHg 37%
    23:00 +28°C° 0 mm 2 mps 665 mmHg 41%

    24 January, Wednesday

    Time Temperature Precipitation Wind Pressure Humidity
    00:00 +27°C° 0 mm 3 mps 664 mmHg 44%
    01:00 +26°C° 0 mm 3 mps 664 mmHg 48%
    02:00 +26°C° 0 mm 3 mps 664 mmHg 47%
    03:00 +26°C° 0 mm 3 mps 664 mmHg 46%
    04:00 +25°C° 0 mm 4 mps 664 mmHg 45%
    05:00 +25°C° 0 mm 3 mps 665 mmHg 46%
    06:00 +25°C° 0 mm 3 mps 665 mmHg 46%
    07:00 +25°C° 0 mm 3 mps 666 mmHg 46%
    08:00 +27°C° 0 mm 3 mps 666 mmHg 41%
    09:00 +29°C° 0 mm 3 mps 666 mmHg 36%
    10:00 +33°C° 0 mm 3 mps 667 mmHg 31%
    11:00 +34°C° 0 mm 2 mps 666 mmHg 29%
    12:00 +36°C° 0 mm 2 mps 666 mmHg 27%
    13:00 +36°C° 0 mm 1 mps 666 mmHg 24%
    14:00 +35°C° 0 mm 1 mps 665 mmHg 26%
    15:00 +34°C° 0 mm 1 mps 664 mmHg 28%
    16:00 +33°C° 0 mm 1 mps 664 mmHg 30%
    17:00 +32°C° 0 mm 1 mps 664 mmHg 32%
    18:00 +31°C° 0 mm 1 mps 664 mmHg 34%
    19:00 +30°C° 0 mm 2 mps 664 mmHg 36%
    20:00 +29°C° 0.5 mm 2 mps 664 mmHg 42%
    21:00 +28°C° 0.5 mm 2 mps 665 mmHg 47%
    22:00 +27°C° 0.5 mm 3 mps 665 mmHg 52%
    23:00 +26°C° 0.2 mm 3 mps 665 mmHg 54%
    Show more